Weather observations for the past three days for
Vacaville Nut Tree Airport
Metric (Imperial)
Date Time (pdt) Wind (kph) Vis. (km) Weather Sky Cond. Temperature (ºC) Relative Humidity Wind Chill (°C) Heat Index (°C) Pressure Precipitation (cm)
Air Dwpt 6 hour altimeter (cm) sea level (mb) 1 hr 3 hr 6 hr
Max. Min.
04 13:53 W 9 16.09 Mostly Cloudy SCT043 BKN070 BKN090 17.2 9.4 60% 76.12 1014.9
04 12:53 SW 13 16.09 Overcast FEW075 OVC090 16.7 9.4 62% 76.15 1015.0
04 11:53 Calm 16.09 Mostly Cloudy FEW035 BKN095 16.7 8.3 58% 76.15 1015.1
04 10:53 Vrbl 7 16.09 Overcast OVC085 16.7 8.3 17.2 10.6 58% 76.12 1014.9
04 09:53 S 7 16.09 Overcast OVC080 16.1 8.3 60% 76.12 1014.7
04 08:53 S 11 16.09 Fair CLR 14.4 8.9 70% 76.07 1014.0
04 07:53 Calm 16.09 Fair CLR 13.3 8.3 72% 76.07 1014.0
04 06:53 SE 7 16.09 Overcast OVC080 12.2 8.3 77% 76.07 1014.0
04 05:53 SW 6 16.09 Partly Cloudy SCT060 11.1 7.8 80% 76.02 1013.4
04 04:53 S 7 16.09 Fair CLR 11.7 7.8 13.3 11.7 77% 76.02 1013.3
04 03:53 Calm 16.09 A Few Clouds FEW065 11.7 8.3 80% 76.02 1013.3
04 02:53 SW 15 G 26 16.09 Mostly Cloudy BKN060 12.2 8.9 80% 76.02 1013.5
04 01:53 S 13 16.09 Fair CLR 12.2 8.3 77% 76.02 1013.5
04 00:53 Vrbl 11 G 30 16.09 Fair CLR 12.8 8.3 74% 76.05 1013.7
03 23:53 S 11 16.09 Fair CLR 13.3 8.3 72% 76.05 1013.9
03 22:53 S 9 16.09 Fair CLR 13.9 8.3 20 13.3 69% 76.05 1013.7
03 21:53 S 7 16.09 Fair CLR 14.4 7.8 65% 76 1013.2
03 20:53 SW 15 16.09 Fair CLR 15 8.3 64% 75.95 1012.5
03 19:53 SW 17 G 31 16.09 Fair CLR 16.1 7.8 58% 75.92 1012.1
03 18:53 SW 17 16.09 Fair CLR 17.2 8.9 58% 75.87 1011.4
03 17:53 SW 13 G 30 16.09 Fair CLR 18.3 9.4 56% 75.87 1011.3
03 16:53 SW 22 G 37 16.09 Fair CLR 20 8.9 21.1 16.7 49% 75.87 1011.4
03 15:53 SW 22 G 44 16.09 Fair CLR 20 8.9 49% 75.84 1011.1
03 14:53 SW 22 G 37 16.09 Fair CLR 21.1 8.9 46% 75.9 1011.6
03 13:53 SW 24 G 41 16.09 Fair CLR 20.6 8.9 47% 75.9 1011.8
03 12:53 SW 22 G 39 16.09 Fair CLR 18.3 8.3 52% 75.92 1011.9
03 11:53 SW 22 G 39 16.09 Fair CLR 17.8 8.9 56% 75.95 1012.3
03 10:53 SW 26 G 41 16.09 Fair CLR 17.2 8.3 17.2 12.2 56% 75.92 1012.0
03 09:53 SW 20 G 37 16.09 Fair CLR 15 8.9 67% 75.87 1011.4
03 08:53 SW 19 G 31 16.09 Fair CLR 14.4 8.9 70% 75.84 1011.2
03 07:53 SW 20 G 35 16.09 Partly Cloudy SCT110 13.9 8.3 69% 75.82 1010.7
03 06:53 SW 9 16.09 Mostly Cloudy BKN110 12.8 8.3 74% 75.77 1009.9
03 05:53 SW 13 16.09 A Few Clouds FEW110 12.8 8.3 74% 75.72 1009.3
03 04:53 SW 11 16.09 Fair CLR 12.8 8.3 13.3 12.2 74% 75.69 1009.2
03 03:53 SW 7 16.09 Fair CLR 12.8 8.3 74% 75.69 1009.1
03 02:53 SW 11 16.09 Fair CLR 12.8 8.9 77% 75.69 1009.1
03 01:53 W 7 16.09 Fair CLR 12.2 8.9 80% 75.74 1009.7
03 00:53 SW 19 16.09 Fair CLR 12.8 8.9 77% 75.74 1009.6
02 23:53 SW 11 G 26 16.09 Fair CLR 13.3 8.3 72% 75.77 1010.0
02 22:53 SW 15 16.09 Fair CLR 13.3 8.9 20 13.3 75% 75.79 1010.3
02 21:53 Vrbl 6 16.09 Fair CLR 13.9 9.4 74% 75.79 1010.5
02 20:53 SW 15 16.09 Fair CLR 14.4 8.9 70% 75.74 1009.8
02 19:53 S 11 16.09 Fair CLR 16.1 9.4 65% 75.72 1009.3
02 18:53 S 15 G 31 16.09 Fair CLR 17.2 10 63% 75.69 1009.0
02 17:53 SW 26 G 44 16.09 Fair CLR 18.9 10.6 59% 75.69 1009.0
02 16:53 S 20 G 41 16.09 Fair CLR 19.4 11.1 21.7 16.1 59% 75.72 1009.3
02 15:53 S 20 G 39 16.09 Fair CLR 20 11.1 57% 75.79 1010.3
02 14:53 SW 20 G 39 16.09 Fair CLR 21.1 11.7 55% 75.84 1010.9
02 13:53 SW 22 G 44 16.09 Fair CLR 20.6 11.1 55% 75.9 1011.8
02 12:53 S 17 G 43 16.09 Fair CLR 19.4 11.7 61% 75.92 1012.1
02 11:53 S 19 G 39 16.09 Fair CLR 17.2 11.1 68% 75.92 1012.1
02 10:53 SW 19 G 41 16.09 Fair CLR 17.2 11.1 17.2 13.3 68% 75.92 1012.0
02 09:53 SW 19 G 37 16.09 Fair CLR 14.4 10.6 78% 75.92 1012.2
02 08:53 SW 24 G 37 16.09 Fair CLR 13.9 10 78% 75.9 1011.7
02 07:53 SW 13 G 39 16.09 Fair CLR 13.3 10 81% 75.84 1011.2
02 06:53 S 13 G 39 16.09 Fair CLR 13.3 9.4 77% 75.82 1010.6
02 05:53 S 6 16.09 Fair CLR 13.9 7.8 67% 75.79 1010.2
02 04:53 SW 17 G 31 16.09 Fair CLR 13.9 8.3 16.7 13.3 69% 75.77 1009.9
02 03:53 SW 19 G 35 16.09 Fair CLR 13.9 8.9 72% 75.77 1010.0
02 02:53 S 19 G 30 16.09 Fair CLR 13.3 8.9 75% 75.79 1010.3
02 01:53 SW 17 16.09 Fair CLR 13.9 9.4 74% 75.82 1010.7
02 00:53 SW 13 16.09 Fair CLR 15 9.4 69% 75.82 1010.8
01 23:53 SW 20 G 35 16.09 Fair CLR 15 10 72% 75.84 1010.9
01 22:53 SW 9 16.09 Fair CLR 16.7 10.6 27.8 16.7 67% 75.84 1011.0
01 21:53 SW 9 16.09 Fair CLR 18.9 11.1 61% 75.84 1011.1
01 20:53 Vrbl 7 16.09 Fair CLR 20 12.2 61% 75.79 1010.5
01 19:53 S 6 16.09 Fair CLR 21.7 12.2 55% 75.74 1009.9
01 18:53 Vrbl 11 16.09 Fair CLR 25 13.3 48% 26 75.74 1009.8
01 17:53 SW 9 16.09 Fair CLR 27.2 13.3 42% 27 75.74 1009.8
01 16:53 SW 7 16.09 Fair CLR 26.1 14.4 27.8 22.2 49% 27 75.79 1010.3
01 15:53 Vrbl 9 16.09 Fair CLR 27.2 14.4 45% 27 75.82 1010.8
01 14:53 S 11 16.09 Fair CLR 27.2 14.4 45% 27 75.92 1011.8
Date Time (pdt) Wind (kph) Vis. (km) Weather Sky Cond. Air Dwpt Max. Min. Relative Humidity Wind Chill (°C) Heat Index (°C) altimeter (cm) sea level (mb) 1 hr 3 hr 6 hr
6 hour
Temperature (ºC) Pressure Precipitation (cm)